Regional Weather Roundup
Issued by NWS Sterling, VA

Home | Current Version | Previous Version | Graphics & Text | Print | Product List | Glossary On
Versions: 1 2 3 4 5 6 7 8 9 10 11 12 13 14 15 16 17 18 19 20 21 22 23 24 25 26 27 28 29 30 31 32 33 34 35 36 37 38 39 40 41 42 43 44 45 46 47 48 49 50
000
ASUS41 KLWX 301510
RWRLWX

REGIONAL WEATHER ROUNDUP
NATIONAL WEATHER SERVICE BALTIMORE MD/WASHINGTON DC
1100 AM EDT TUE JUN 30 2015

Note: "FAIR" indicates few or no clouds below 12,000 feet
with no significant weather and/or obstructions to visibility.
 TC=TEMPERATURE CELSIUS

 * =Non NWS site. Station does not report precipitation (e.g. rain,
    snow, etc.), thunder, or fog.

DCZ001-MDZ009-015-VAZ040>042-051-053>054-301600-
WASHINGTON METRO

CITY           SKY/WX    TMP DP  RH WIND       PRES   REMARKS
WASHINGTON NAT PTSUNNY   78  73  84 SW6       29.91F
DULLES         PTSUNNY   76  67  73 SW7       29.90F
ANDREWS AFB    DRIZZLE   77  73  88 S9        29.90F
FT BELVOIR     PTSUNNY   77  72  85 SE6       29.90F
QUANTICO       MOSUNNY   78  69  73 S6        29.91S
COLLEGE PARK*  PTSUNNY   79  72  78 S5        29.90F
LEESBURG*      CLOUDY    79  72  78 SW6       29.91F
MANASSAS*      MOSUNNY   79  70  73 SW9         N/A
GAITHERSBURG*  CLOUDY    73  66  78 SE6       29.95S

$$

MDZ006>007-011-014-301600-
BALTIMORE METRO

CITY           SKY/WX    TMP DP  RH WIND       PRES   REMARKS
BWI AIRPORT    CLOUDY    76  72  87 SE5       29.89F
MD SCIENCE CTR   N/A     78  72  81 MISG      29.91S
MARTIN STATE   PTSUNNY   77  75  94 SE12G17   29.92F
ANNAPOLIS      LGT RAIN  78  72  81 S13G21    29.90F
FORT MEADE*    CLOUDY    75  72  88 SE6       29.92F

$$

MDZ012-015-019>023-301600-
MARYLAND EASTERN SHORE

CITY           SKY/WX    TMP DP  RH WIND       PRES   REMARKS
OCEAN CITY     NOT AVBL
SALISBURY      SUNNY     82  64  54 S18G24    29.95F
BAY BRIDGE AP*   N/A     79  70  73 S13G18    29.91F
CAMBRIDGE*     PTSUNNY   81  68  65 SE15G25   29.92F
EASTON*        PTSUNNY   84  72  65 S12G22    29.95F

$$

MDZ017>025-301600-
SOUTHERN MARYLAND

CITY           SKY/WX    TMP DP  RH WIND       PRES   REMARKS
PATUXENT RIVER MOSUNNY   81  74  79 SE15G23   29.91F
ST INIGOES     MOSUNNY   81  73  76 S13       29.90F
LEONARDTOWN*   MOSUNNY   81  70  69 SE7       29.93S

$$

MDZ003>005-301600-
NORTH CENTRAL MARYLAND

CITY           SKY/WX    TMP DP  RH WIND       PRES   REMARKS
FREDERICK*     CLOUDY    75  72  88 S6        29.93F
HAGERSTOWN APT PTSUNNY   77  64  64 S8        29.89F
WESTMINSTER*   PTSUNNY   75  70  83 MISG      29.92S

$$

MDZ501>502-301600-
WESTERN MARYLAND

CITY           SKY/WX    TMP DP  RH WIND       PRES   REMARKS
OAKLAND*       CLOUDY    63 N/A N/A SW9G20    29.97S
CUMBERLAND*    PTSUNNY   75  64  69 SE7       29.92F

$$

VAZ025>031-301600-
SHENANDOAH VALLEY

CITY           SKY/WX    TMP DP  RH WIND       PRES   REMARKS
WINCHESTER*    SUNNY     81  64  57 S8        29.90S
FRONT ROYAL*   FAIR      79  66  65 S6        29.89S
LURAY*         FAIR      82  66  57 S6        29.91S
NEW MARKET*    FAIR      80  64  58 SW7       29.90S
STAUNTON*      MOSUNNY   80  64  57 S8        29.95F
WAYNESBORO*    FAIR      74  64  69 SW5       29.95F

$$

WVZ021-048>050-054>055-301600-
EASTERN WEST VIRGINIA PANHANDLE

CITY           SKY/WX    TMP DP  RH WIND       PRES   REMARKS
MARTINSBURG    SUNNY     80  65  59 S7        29.89F
PETERSBURG*    PTSUNNY   76  56  49 W8        29.92R

$$

VAZ036>039-050-301600-
CENTRAL FOOTHILLS

CITY           SKY/WX    TMP DP  RH WIND       PRES   REMARKS
CHARLOTTESVILL PTSUNNY   74  66  76 S6        29.91F
CULPEPER*      MOSUNNY   78  68  71 SW5       29.91F
ORANGE*        SUNNY     81  68  65 S8        29.93S
GORDONSVILLE*  FAIR      79  66  65 SW7       29.92S
WARRENTON*     FAIR      80  72  75 SW5       29.90S

$$

VAZ055>057-301600-
NORTH AND CENTRAL PIEDMONT

CITY           SKY/WX    TMP DP  RH WIND       PRES   REMARKS
FREDERICKSBRG* MOSUNNY   83  68  59 S9        29.90S
STAFFORD*      MOSUNNY   79  67  66 S5        29.94F

$$

NCZ024-NYZ072-PAZ021-071-VAZ022-071-301600-
OTHER REGIONAL OBSERVATIONS

CITY           SKY/WX    TMP DP  RH WIND       PRES   REMARKS
NEW YORK CITY  MOSUNNY   78  60  53 VRB3G21   29.99F
PHILADELPHIA   PTSUNNY   82  63  52 S16       29.93F
PITTSBURGH     PTSUNNY   70  63  78 SW7       29.87F
ROANOKE        PTSUNNY   74  65  73 W7        29.97S
RICHMOND       PTSUNNY   85  67  54 S12       29.92S
RALEIGH        MOSUNNY   84  67  56 SW8       29.96F

$$

ANZ530>537-301600-
MARINE OBSERVATIONS

STATION/POSITION TIME  TEMP    WIND        PRES
                       AIR SEA DIR/SP/G
                 (UTC) (F)     (DEG/KT/KT) (MB)
THOMAS PT LIGHT  NOT AVBL
BALT KEY BRIDGE  1400   76     150/ 13/ 14 1012.5S
COVE POINT       1400   77     180/ 22/ 25 1013.9F
LEWISETTA        1400   81 80  190/ 11/ 13 1013.0F
SOLOMONS ISLAND  1400      79                N/A
PINEY POINT      1400          190/ 14/ 16   N/A

$$



USA.gov is the U.S. government's official web portal to all federal, state and local government web resources and services.